カタログに戻る

STARLINK-35638

運用中通信VLEO
NORAD 66169·PAYLOAD·🇺🇸 United States

打ち上げ Oct 25, 2025 から Cape Canaveral Space Force Station

Loading…

次のパス (今後24時間)

TLE

最新Source: CelesTrak SupGP

元期: Sep 14, 2026, 20:54 UTC

1 66169C 25240Z   26257.87131944  .00053739  00000+0  15881-2 0  2578
2 66169  53.1580 261.8896 0001273  91.9035 273.0774 15.34357207    10

AllMySatでSTARLINK-35638をリアルタイム追跡

Download on the App Store